Khudzhand, Tajikistan

10:35 PM +05 on April 24, 2018 (GMT +0500)
Khudzhand

Weather History for UTDL - December, 2013

Change the Weather History Date:

Monday, December 9, 2013

  Actual Average Record
Temperature  
Mean Temperature 42 °F -  
Max Temperature 48 °F - - ()
Min Temperature 37 °F - - ()
Degree Days  
Heating Degree Days 22    
Moisture  
Dew Point 39 °F    
Average Humidity 87    
Maximum Humidity 100    
Minimum Humidity 71    
Precipitation  
Precipitation 0.00 in - - ()
Sea Level Pressure  
Sea Level Pressure 30.03 in    
Wind  
Wind Speed 11 mph ()    
Max Wind Speed 18 mph    
Max Gust Speed 25 mph    
Visibility 1.3 miles    
Events Fog    
T = Trace of Precipitation, MM = Missing Value Source: Averaged Metar Reports

Daily Weather History Graph

Daily Weather History Graph

Search for Another Location

Airport or City:

Astronomy

Dec. 09, 2013 Rise Set
Actual Time 8:31 AM +06 5:55 PM +06
Civil Twilight 8:01 AM +06 6:25 PM +06
Nautical Twilight 7:27 AM +06 6:59 PM +06
Astronomical Twilight 6:54 AM +06 7:32 PM +06
Moon 1:10 PM +06 (12/9) 12:15 AM +06 (12/9)
Length of Visible Light 10h 24m
Length of Day
9h 23m
Waxing Crescent, 46% of the Moon is Illuminated
Dec 9
Waxing Crescent
Dec 9
First Quarter
Dec 17
Full
Dec 25
Last Quarter
Jan 1
New

Hourly Weather History & Observations

Time (+06) Temp. Windchill Dew Point Humidity Pressure Visibility Wind Dir Wind Speed Gust Speed Precip Events Conditions
12:00 AM 42.8 °F 35.9 °F 39.2 °F 87% 30.01 in 1.2 mi ENE 13.4 mph - N/A   Overcast
12:30 AM 42.8 °F 35.9 °F 39.2 °F 87% 30.01 in 1.6 mi ENE 13.4 mph 20.1 mph N/A   Overcast
12:57 AM 42.8 °F 35.9 °F 39.2 °F 87% 30.01 in 1.6 mi ENE 13.4 mph 20.1 mph N/A   Overcast
1:00 AM 42.8 °F 35.9 °F 39.2 °F 87% 30.01 in 1.6 mi ENE 13.4 mph 20.1 mph N/A   Overcast
1:30 AM 42.8 °F 37.6 °F 39.2 °F 87% 30.01 in 1.6 mi NE 8.9 mph 15.7 mph N/A   Overcast
2:00 AM 42.8 °F 36.7 °F 39.2 °F 87% 30.01 in 1.5 mi ENE 11.2 mph - N/A   Overcast
2:30 AM 42.8 °F 35.9 °F 39.2 °F 87% 30.01 in 1.5 mi East 13.4 mph - N/A   Overcast
3:00 AM 42.8 °F 35.9 °F 39.2 °F 87% 30.04 in 1.7 mi East 13.4 mph - N/A   Overcast
3:30 AM 42.8 °F 35.9 °F 39.2 °F 87% 30.04 in 1.9 mi East 13.4 mph - N/A   Overcast
4:00 AM 42.8 °F 38.7 °F 39.2 °F 87% 30.04 in 1.4 mi NE 6.7 mph - N/A   Overcast
4:30 AM 41.0 °F 35.4 °F 39.2 °F 93% 30.04 in 1.2 mi NE 8.9 mph - N/A   Overcast
5:00 AM 41.0 °F 35.4 °F 39.2 °F 93% 30.01 in 0.9 mi NE 8.9 mph - N/A   Overcast
5:30 AM 41.0 °F 36.5 °F 39.2 °F 93% 30.04 in 0.7 mi NE 6.7 mph - N/A   Overcast
6:00 AM 39.2 °F 34.4 °F 37.4 °F 93% 30.04 in 0.8 mi NE 6.7 mph - N/A   Overcast
6:30 AM 39.2 °F 36.0 °F 37.4 °F 93% 30.04 in 0.4 mi NE 4.5 mph - N/A Fog Fog
7:00 AM 39.2 °F 34.4 °F 37.4 °F 93% 30.04 in 0.3 mi NE 6.7 mph - N/A Fog Fog
7:30 AM 37.4 °F 33.9 °F 35.6 °F 93% 30.04 in 0.1 mi NE 4.5 mph - N/A Fog Fog
8:00 AM 37.4 °F 32.2 °F 37.4 °F 100% 30.04 in 0.1 mi ENE 6.7 mph - N/A Fog Fog
8:30 AM 37.4 °F 33.9 °F 37.4 °F 100% 30.04 in 0.1 mi ENE 4.5 mph - N/A Fog Fog
9:00 AM 39.2 °F 36.0 °F 37.4 °F 93% 30.04 in 0.1 mi ENE 4.5 mph - N/A Fog Fog
9:30 AM 39.2 °F 36.0 °F 37.4 °F 93% 30.04 in 0.1 mi NNE 4.5 mph - N/A Fog Fog
10:00 AM 39.2 °F 34.4 °F 37.4 °F 93% 30.04 in 0.1 mi NNE 6.7 mph - N/A Fog Fog
10:30 AM 41.0 °F 35.4 °F 39.2 °F 93% 30.06 in 1.2 mi ENE 8.9 mph - N/A   Overcast
11:00 AM 41.0 °F 34.4 °F 39.2 °F 93% 30.06 in 1.6 mi ENE 11.2 mph - N/A   Overcast
11:30 AM 41.0 °F 34.4 °F 39.2 °F 93% 30.06 in 0.9 mi East 11.2 mph - N/A   Overcast
12:00 PM 42.8 °F 35.9 °F 39.2 °F 87% 30.04 in 1.6 mi ENE 13.4 mph - N/A   Overcast
12:30 PM 46.4 °F 40.5 °F 39.2 °F 76% 30.04 in 3.1 mi ENE 13.4 mph 20.1 mph N/A   Partly Cloudy
1:00 PM 46.4 °F 39.3 °F 39.2 °F 76% 30.04 in 3.1 mi ENE 17.9 mph - N/A   Clear
1:30 PM 48.2 °F - 39.2 °F 71% 30.04 in 3.1 mi ENE 17.9 mph 24.6 mph N/A   Clear
2:00 PM 48.2 °F - 39.2 °F 71% 30.04 in 3.1 mi ENE 17.9 mph - N/A   Clear
2:30 PM 48.2 °F - 39.2 °F 71% 30.01 in 3.1 mi ENE 15.7 mph 22.4 mph N/A   Clear
3:00 PM 48.2 °F - 39.2 °F 71% 30.01 in - ENE 15.7 mph 22.4 mph N/A   Clear
3:30 PM 48.2 °F - 39.2 °F 71% 30.01 in - ENE 15.7 mph 22.4 mph N/A   Clear
4:00 PM 48.2 °F - 39.2 °F 71% 30.01 in - ENE 17.9 mph 24.6 mph N/A   Clear
4:30 PM 48.2 °F - 39.2 °F 71% 30.01 in 2.8 mi ENE 15.7 mph 22.4 mph N/A   Clear
5:00 PM 48.2 °F - 39.2 °F 71% 30.01 in 3.1 mi ENE 17.9 mph 24.6 mph N/A   Clear
5:30 PM 46.4 °F 40.5 °F 39.2 °F 76% 30.04 in 2.8 mi ENE 13.4 mph 20.1 mph N/A   Clear
6:00 PM 44.6 °F 37.6 °F 39.2 °F 81% 30.04 in 2.8 mi ENE 15.7 mph - N/A   Clear
6:30 PM 42.8 °F 36.7 °F 39.2 °F 87% 30.04 in - NE 11.2 mph - N/A   Clear
7:00 PM 42.8 °F 35.9 °F 39.2 °F 87% 30.04 in - NE 13.4 mph 22.4 mph N/A   Clear
7:30 PM 42.8 °F 35.2 °F 39.2 °F 87% 30.04 in 1.2 mi ENE 15.7 mph - N/A   Clear
8:00 PM 41.0 °F 33.6 °F 39.2 °F 93% 30.04 in 0.1 mi ENE 13.4 mph 20.1 mph N/A Fog Fog
8:30 PM 41.0 °F 32.9 °F 39.2 °F 93% 30.06 in 0.0 mi ENE 15.7 mph - N/A Fog Fog
9:00 PM 41.0 °F 33.6 °F 39.2 °F 93% 30.06 in 0.0 mi ENE 13.4 mph - N/A Fog Fog
9:30 PM 39.2 °F 31.3 °F 39.2 °F 100% 30.06 in 0.1 mi ENE 13.4 mph 20.1 mph N/A Fog Fog
10:00 PM 39.2 °F 31.3 °F 37.4 °F 93% 30.04 in 0.4 mi ENE 13.4 mph 20.1 mph N/A Fog Fog
10:30 PM 39.2 °F 30.6 °F 39.2 °F 100% 30.04 in 0.7 mi ENE 15.7 mph 22.4 mph N/A   Partly Cloudy
11:00 PM 39.2 °F 30.6 °F 37.4 °F 93% 30.04 in 0.7 mi ENE 15.7 mph 22.4 mph N/A   Scattered Clouds
11:30 PM 39.2 °F 30.6 °F 37.4 °F 93% 30.04 in 0.9 mi ENE 15.7 mph - N/A   Scattered Clouds